Miscellaneous Local Product
Issued by NWS Hastings, NE

Home | Current Version | Previous Version | Graphics & Text | Print | Product List | Glossary On
Versions: 1 2 3 4 5 6 7 8 9 10 11 12 13 14 15 16 17 18 19 20 21 22 23 24 25 26 27 28 29 30 31 32 33 34 35 36 37 38 39 40 41 42 43 44 45 46 47 48 49 50
000
AXUS43 KGID 270102
MISGRI

GID CWA HOURLY WEATHER ROUNDUP
NATIONAL WEATHER SERVICE HASTINGS NE
700 PM CST FRI DEC 26 2014

NOTE: "FAIR" INDICATES FEW OR NO CLOUDS BELOW 12,000 FEET WITH NO
SIGNIFICANT WEATHER AND/OR OBSTRUCTIONS TO VISIBILITY.

...SOUTH CENTRAL NEBRASKA...

CITY           SKY/WX    TMP DP  RH WIND       PRES   REMARKS
GRAND ISLAND   LGT SNOW  23  21  92 N15       30.05R FOG     WCI  10
HASTINGS       LGT SNOW  24  21  88 N16       30.02R FOG     WCI  11
KEARNEY        CLOUDY    23  19  86 NW20      30.03S WCI   8
ORD            LGT SNOW  22  18  85 N15       30.05S VSB 1   WCI   9
YORK           LGT SNOW  27  25  93 N15       30.02R WCI  15
AURORA         LGT SNOW  26  24  94 N15       30.03R WCI  13
LEXINGTON      LGT SNOW  23  20  89 N12       30.04R WCI  12
HOLDREGE       LGT SNOW  23  20  89 N16G22    30.04R WCI   9
HEBRON         MIX PCPN  29  27  92 N8        30.01F WCI  22

...NEBRASKA PANHANDLE...

CITY           SKY/WX    TMP DP  RH WIND       PRES   REMARKS
CHADRON        CLOUDY    19  14  81 E3        30.11R
ALLIANCE       CLOUDY    17  14  88 N7        30.05R WCI   8
SCOTTSBLUFF    LGT SNOW  18  16  92 W3        30.07R FOG
SIDNEY         LGT SNOW  16  12  84 N6        30.04R FOG     WCI   7

...WESTERN AND NORTH CENTRAL NEBRASKA...

CITY           SKY/WX    TMP DP  RH WIND       PRES   REMARKS
VALENTINE      LGT SNOW  20  16  84 N12       30.11R VSB 1   WCI   8
AINSWORTH      LGT SNOW  19  17  91 N9        30.08F WCI   8
ONEILL         LGT SNOW  22  22  96 N9        30.08R WCI  12
BROKEN BOW     LGT SNOW  22  18  85 N16       30.04R FOG     WCI   8
IMPERIAL       LGT SNOW  20  16  84 N14       30.06R FOG     WCI   7
NORTH PLATTE   FLURRIES  20  16  84 N8        30.06R WCI  10
MCCOOK         CLOUDY    23  20  88 NW9       30.06R WCI  13

...EASTERN NEBRASKA...

CITY           SKY/WX    TMP DP  RH WIND       PRES   REMARKS
NORFOLK        LGT SNOW  25  23  92 N16       30.04R FOG     WCI  12
SO SIOUX CITY  CLOUDY    31  26  82 N12       30.06R WCI  22
TEKAMAH        CLOUDY    32  28  85 N14       30.04R WCI  22
COLUMBUS       CLOUDY    27  21  80 N14       30.04S WCI  15
ALBION         LGT SNOW  24  19  84 N14G21    30.05R WCI  11
OMAHA EPPLEY   FRZ DRZL  32  31  96 N10       30.04R FOG     WCI  24
OFFUTT AFB     DRIZZLE   33  31  94 N8        30.00S FOG     WCI  25
MILLARD        DRIZZLE   33  31  93 N3        30.01F
LINCOLN        CLOUDY    31  28  89 N14       30.00F WCI  21
NEBRASKA CITY  CLOUDY    32  32 100 N10       29.98F FOG     WCI  24
BEATRICE       CLOUDY    31  30  97 N7        30.01R FOG     WCI  24
FALLS CITY     CLOUDY    34  32  92 N7        29.98R FOG     WCI  28

...NORTHERN KANSAS...

CITY           SKY/WX    TMP DP  RH WIND       PRES   REMARKS
GOODLAND       LGT SNOW  19  17  92 N10       30.04R FOG     WCI   7
HILL CITY      CLOUDY    25  22  88 N8        30.05R WCI  16
NORTON         CLOUDY    23  18  80 N12       30.04R WCI  12
PHILLIPSBURG   LGT SNOW  28  25  86 NW13      30.05R WCI  18
SMITH CENTER   CLEAR     25  23  93 N9        30.04R WCI  15
BELOIT         CLOUDY    30  28  93 N10       30.03R WCI  21
HAYS           CLOUDY    27  18  69 N7        30.04R WCI  19
RUSSELL        LGT SNOW  28  27  96 N9        30.02R VSB 1   WCI  19
CONCORDIA      CLOUDY    29  29 100 N9        30.02R FOG     WCI  20
SALINA         CLOUDY    33  30  88 NW10      30.03R FOG     WCI  25
TOPEKA         CLOUDY    39  34  82 N6        29.99S WCI  35



USA.gov is the U.S. government's official web portal to all federal, state and local government web resources and services.